Weather reports worldwide

Advertisment
Bergen/Florida, Norway (1317): temperature & dewpoint: 25.09.2020 14:00:00 - 01.10.2020 14:00:00 (CEST)Bergen/Florida, Norway (1317): wind speed & gusts: 25.09.2020 14:00:00 - 01.10.2020 14:00:00 (CEST)Bergen/Florida, Norway (1317): wind direction: 25.09.2020 14:00:00 - 01.10.2020 14:00:00 (CEST)Bergen/Florida, Norway (1317): reduced air pressure: 25.09.2020 14:00:00 - 01.10.2020 14:00:00 (CEST)Bergen/Florida, Norway (1317): visibility: 25.09.2020 14:00:00 - 01.10.2020 14:00:00 (CEST)Bergen/Florida, Norway (1317): precipitation: 25.09.2020 14:00:00 - 01.10.2020 14:00:00 (CEST)
Date & Time tt [°C] td [°C] ff [km/h] ff [kn] fx [km/h] fx [kn] dd ppp [hPa] vv [km] rr [mm]
01.10.2020 14:00:00 20,5 7,3 17 9 46 25 ESE 1005,3 30 0,0
01.10.2020 13:00:00 19,6 7,3 27 15 53 28 E 1005,4 - 0,0
01.10.2020 12:00:00 19,0 7,5 25 13 50 27 ESE 1005,4 - 0,0
01.10.2020 11:00:00 18,8 7,2 29 16 53 29 ESE 1005,5 30 0,0
01.10.2020 10:00:00 18,2 7,3 29 15 51 28 ESE 1005,6 - 0,0
01.10.2020 09:00:00 - - - - - - - - - -
01.10.2020 08:00:00 17,3 6,6 20 11 45 24 SE 1005,5 30 -
01.10.2020 07:00:00 17,4 6,6 31 17 55 30 SE 1005,6 - 0,0
01.10.2020 06:00:00 16,3 6,8 19 11 37 20 SE 1005,9 - 0,0
01.10.2020 05:00:00 14,7 7,5 13 7 26 14 SE 1006,4 - 0,0
01.10.2020 04:00:00 14,4 8,5 11 6 20 11 SSE 1006,9 - 0,0
01.10.2020 03:00:00 14,2 8,7 14 7 30 16 SSE 1007,2 - 0,0
01.10.2020 02:00:00 14,2 10,0 17 9 41 22 SE 1007,9 - 0,6
01.10.2020 01:00:00 13,0 10,6 13 7 21 11 SE 1008,7 - 0,2
01.10.2020 00:00:00 13,0 10,7 7 4 25 14 S 1009,2 - 0,0
30.09.2020 23:00:00 13,7 10,7 16 9 39 21 SSE 1009,3 30 0,3
30.09.2020 22:00:00 15,7 8,6 6 4 39 21 SSE 1008,3 - 0,0
30.09.2020 21:00:00 17,1 7,6 23 13 37 20 SE 1008,0 - 0,0
30.09.2020 20:00:00 15,6 8,3 17 9 29 16 SE 1008,2 - 0,0
30.09.2020 19:00:00 15,5 9,1 8 5 19 10 SE 1008,7 - 0,0
30.09.2020 18:00:00 16,1 8,8 13 7 22 12 SE 1008,5 - 0,0
30.09.2020 17:00:00 16,5 8,4 10 5 19 10 SSE 1008,8 65 0,0
30.09.2020 16:00:00 16,8 8,4 10 5 31 17 S 1009,2 - 0,0
30.09.2020 15:00:00 - - - - - - - - - -
30.09.2020 14:00:00 16,7 7,0 19 10 38 21 SE 1010,2 40 0,0
30.09.2020 13:00:00 - - - - - - - - - -
30.09.2020 12:00:00 - - - - - - - - - -
30.09.2020 11:00:00 13,0 11,3 9 5 18 10 SSE 1011,5 30 0,0
30.09.2020 10:00:00 12,1 11,2 10 5 14 8 SE 1011,7 - 0,0
30.09.2020 09:00:00 11,7 10,9 9 5 16 9 SSE 1011,6 - 0,4
30.09.2020 08:00:00 11,5 10,8 11 6 19 11 SE 1011,2 6 1,4
30.09.2020 07:00:00 11,7 11,0 8 4 18 10 ESE 1010,8 - 1,1
30.09.2020 06:00:00 11,9 11,2 4 2 11 6 SE 1010,9 - 1,3
30.09.2020 05:00:00 11,8 11,1 5 3 7 4 SE 1011,1 - 0,1
30.09.2020 04:00:00 11,7 11,0 5 3 7 4 ESE 1011,4 - 0,0
30.09.2020 03:00:00 11,4 10,7 4 2 5 3 SE 1011,9 - 0,0
30.09.2020 02:00:00 11,4 10,7 3 2 5 3 SE 1012,1 - 0,0
30.09.2020 01:00:00 11,3 10,6 2 1 4 2 ESE 1012,5 - 0,0
30.09.2020 00:00:00 11,2 10,5 1 1 7 4 WNW 1013,0 - 0,3
29.09.2020 23:00:00 11,4 10,7 4 2 6 4 NW 1013,2 15 0,0
29.09.2020 22:00:00 - - - - - - - - - -
29.09.2020 21:00:00 11,3 10,6 1 1 5 3 E 1013,6 - 0,2
29.09.2020 20:00:00 11,3 10,5 1 1 10 5 S 1013,4 15 0,3
29.09.2020 19:00:00 11,3 10,5 7 4 16 9 NW 1013,2 - 4,0
29.09.2020 18:00:00 11,8 11,1 8 4 16 9 NW 1012,8 - 0,9
29.09.2020 17:00:00 11,6 10,8 6 4 13 7 WNW 1012,7 8 1,0
29.09.2020 16:00:00 11,8 11,0 6 3 15 8 WNW 1012,8 - 1,1
29.09.2020 15:00:00 11,8 11,0 10 5 17 9 NW 1013,0 - 1,6
29.09.2020 14:00:00 12,0 11,2 10 5 19 11 NW 1013,2 4,3 0,8
29.09.2020 13:00:00 12,1 11,3 11 6 16 9 NW 1013,3 - 1,4
29.09.2020 12:00:00 - - - - - - - - - -
29.09.2020 11:00:00 12,6 11,8 7 4 13 7 NW 1013,1 6 1,2
29.09.2020 10:00:00 12,7 11,9 7 4 15 8 WNW 1012,9 - 1,1
29.09.2020 09:00:00 13,2 12,4 8 4 13 7 NNW 1012,7 - 0,4
29.09.2020 08:00:00 13,5 12,7 8 4 9 5 SSE 1012,4 6 -
29.09.2020 07:00:00 13,4 12,6 5 3 11 6 ESE 1012,1 - 2,1
29.09.2020 06:00:00 13,3 12,5 9 5 12 7 SSE 1012,1 - 0,5
29.09.2020 05:00:00 13,3 12,5 7 4 12 6 SE 1012,2 - 2,5
29.09.2020 04:00:00 13,3 12,5 8 4 10 6 SE 1012,4 - 1,2
29.09.2020 03:00:00 13,3 12,4 9 5 11 6 SE 1012,3 - 1,6
29.09.2020 02:00:00 13,3 12,3 6 3 13 7 ESE 1012,2 - 0,1
29.09.2020 01:00:00 - - - - - - - - - -
29.09.2020 00:00:00 13,5 12,2 9 5 17 9 SE 1012,5 - 0,0
28.09.2020 23:00:00 14,2 12,0 15 8 22 12 S 1012,5 25 0,6
28.09.2020 22:00:00 14,2 11,6 8 4 12 7 SE 1012,2 - 0,0
28.09.2020 21:00:00 14,2 11,7 9 5 11 6 SE 1011,8 - 0,0
28.09.2020 20:00:00 14,4 11,7 4 2 9 5 SSE 1011,2 60 0,0
28.09.2020 19:00:00 14,7 11,8 8 4 11 6 SE 1010,9 - 0,0
28.09.2020 18:00:00 - - - - - - - - - -
28.09.2020 17:00:00 15,7 11,3 3 2 16 9 SW 1011,4 65 0,0
28.09.2020 16:00:00 - - - - - - - - - -
28.09.2020 15:00:00 17,0 11,2 8 4 14 7 SSE 1011,3 - 0,0
28.09.2020 14:00:00 16,7 10,8 8 4 19 10 SSE 1011,8 40 0,0
28.09.2020 13:00:00 16,2 10,5 12 6 21 12 SE 1011,9 - 0,0
28.09.2020 12:00:00 16,2 11,6 10 6 16 9 SE 1012,1 - 0,0
28.09.2020 11:00:00 15,3 12,0 3 2 6 3 SE 1012,2 40 0,0
28.09.2020 10:00:00 13,7 12,0 1 0 8 5 N 1012,1 - 0,0
28.09.2020 09:00:00 11,0 10,0 5 3 13 7 SSE 1012,3 - 0,0
28.09.2020 08:00:00 11,1 10,2 10 6 13 7 SSE 1012,4 40 0,0
28.09.2020 07:00:00 - - - - - - - - - -
28.09.2020 06:00:00 11,2 9,9 4 2 10 6 NNW 1012,9 - 0,0
28.09.2020 05:00:00 - - - - - - - - - -
28.09.2020 04:00:00 11,9 10,4 5 3 9 5 SE 1013,3 - 0,0
28.09.2020 03:00:00 12,5 10,9 6 4 11 6 SE 1013,3 - 0,0
28.09.2020 02:00:00 12,8 10,8 6 3 9 5 SSE 1013,1 - 0,0
28.09.2020 01:00:00 12,6 10,5 1 1 5 3 N 1013,1 - 0,0
28.09.2020 00:00:00 13,3 10,8 3 1 6 3 NNW 1013,1 - 0,0
27.09.2020 23:00:00 13,1 10,9 4 2 6 3 SSE 1013,3 65 0,0
27.09.2020 22:00:00 13,1 10,4 1 0 4 2 NNE 1013,4 - 0,0
27.09.2020 21:00:00 14,1 9,8 5 3 7 4 NNW 1013,2 - 0,0
27.09.2020 20:00:00 14,1 9,2 3 2 11 6 ESE 1012,8 65 0,0
27.09.2020 19:00:00 14,9 9,1 5 3 9 5 NW 1012,5 - 0,0
27.09.2020 18:00:00 15,8 9,3 2 1 8 4 ENE 1012,1 - 0,1
27.09.2020 17:00:00 15,8 8,7 4 2 10 5 NNW 1012,2 60 0,0
27.09.2020 16:00:00 17,4 9,5 6 3 10 6 NW 1012,4 - 0,0
27.09.2020 15:00:00 16,9 9,2 2 1 5 3 S 1012,5 - 0,0
27.09.2020 14:00:00 17,1 8,1 1 1 5 3 NNW 1012,5 75 0,0
27.09.2020 13:00:00 16,0 8,5 4 2 10 5 NW 1012,5 - 0,0
27.09.2020 12:00:00 16,7 8,1 1 1 7 4 N 1012,6 - 0,0
27.09.2020 11:00:00 14,0 9,1 2 1 5 3 NNW 1012,4 75 0,0
27.09.2020 10:00:00 10,8 8,4 4 2 5 3 SE 1012,3 - 0,0
27.09.2020 09:00:00 7,2 6,2 1 1 5 3 N 1012,5 - 0,0
27.09.2020 08:00:00 7,0 5,9 4 2 6 3 SE 1012,4 75 0,0
27.09.2020 07:00:00 7,0 5,8 1 1 4 2 NNW 1012,5 - 0,0
27.09.2020 06:00:00 7,3 6,0 3 2 8 5 SE 1012,6 - 0,0
27.09.2020 05:00:00 7,4 5,9 3 2 4 2 W 1012,9 - 0,0
27.09.2020 04:00:00 7,4 5,7 1 1 10 5 N 1012,7 - 0,0
27.09.2020 03:00:00 8,0 6,1 5 3 10 5 SE 1012,6 - 0,0
27.09.2020 02:00:00 8,3 6,1 4 2 11 6 ESE 1012,6 - 0,0
27.09.2020 01:00:00 8,7 6,0 2 1 9 5 ESE 1012,4 - 0,0
27.09.2020 00:00:00 9,2 6,1 7 4 8 4 SE 1011,9 - 0,0
26.09.2020 23:00:00 10,6 5,8 3 2 11 6 SE 1011,3 75 0,0
26.09.2020 22:00:00 12,2 5,3 9 5 25 13 SSE 1010,5 - 0,0
26.09.2020 21:00:00 14,1 4,4 15 8 34 19 ENE 1009,8 - 0,0
26.09.2020 20:00:00 14,5 4,5 16 8 30 16 ENE 1009,4 75 0,0
26.09.2020 19:00:00 15,0 4,5 11 6 26 14 NE 1008,9 - 0,0
26.09.2020 18:00:00 16,3 4,5 8 5 30 16 E 1008,5 - 0,0
26.09.2020 17:00:00 17,8 5,5 12 7 22 12 N 1007,7 75 0,0
26.09.2020 16:00:00 17,0 6,5 10 6 26 14 NW 1007,3 - 0,0
26.09.2020 15:00:00 - - - - - - - - - -
26.09.2020 14:00:00 17,2 6,0 18 10 28 15 NW 1006,9 65 0,0
26.09.2020 13:00:00 17,0 4,7 9 5 19 11 NW 1006,8 - 0,0
26.09.2020 12:00:00 14,1 3,9 11 6 24 13 WNW 1006,5 - 0,0
26.09.2020 11:00:00 13,2 3,1 9 5 28 15 WNW 1006,0 65 0,0
26.09.2020 10:00:00 13,4 1,7 16 9 41 22 NNW 1005,0 - 0,0
26.09.2020 09:00:00 11,2 2,9 18 10 33 18 W 1004,6 - 0,0
26.09.2020 08:00:00 10,9 3,3 12 6 24 13 WNW 1004,4 55 0,0
26.09.2020 07:00:00 11,3 1,6 9 5 24 13 N 1004,1 - 0,0
26.09.2020 06:00:00 11,1 2,1 4 2 23 12 W 1004,2 - 0,0
26.09.2020 05:00:00 11,9 1,8 8 4 45 24 N 1004,0 - 0,0
26.09.2020 04:00:00 12,6 1,9 21 11 47 25 NE 1004,0 - 0,0
26.09.2020 03:00:00 13,0 1,9 24 13 44 24 NE 1004,0 - 0,0
26.09.2020 02:00:00 13,0 2,7 11 6 34 18 NNE 1004,2 - 0,0
26.09.2020 01:00:00 13,2 2,5 11 6 35 19 NNE 1004,2 - 0,0
26.09.2020 00:00:00 13,3 3,0 22 12 39 21 ENE 1004,4 - 0,0
25.09.2020 23:00:00 - - - - - - - - - -
25.09.2020 22:00:00 10,9 6,8 6 3 9 5 S 1005,0 - 0,0
25.09.2020 21:00:00 11,5 6,6 9 5 16 9 W 1004,6 - 0,0
25.09.2020 20:00:00 11,7 6,3 6 3 13 7 NW 1004,2 50 0,0
25.09.2020 19:00:00 11,9 6,1 10 5 18 10 W 1004,0 - 0,0
25.09.2020 18:00:00 - - - - - - - - - -
25.09.2020 17:00:00 - - - - - - - - - -
25.09.2020 16:00:00 13,7 5,5 10 5 18 10 NW 1003,6 - 0,0
25.09.2020 15:00:00 - - - - - - - - - -
25.09.2020 14:00:00 13,4 5,0 14 8 24 13 NW 1004,0 50 0,0

tt = temperature
td = dewpoint
ff = wind speed
fx = gusts
dd = wind direction
ppp = reduced air pressure
vv = visibility
rr = precipitation

Next stations